Location: ActonStarParty
(42.4766°N, 71.4538°W)
Time: 18:14:41
(UTC-04:00)

ATLAS 5 CENTAUR R/B - Visible Passes

Search period start: 27 April 2015 00:00
Search period end: 07 May 2015 00:00
Orbit: 350 x 14892 km, 60.8° (Epoch: 11 March)

Date Brightness Start Highest point End Pass type
(mag) Time Alt. Az. Time Alt. Az. Time Alt. Az.
27 Apr 8.6 00:35:43 10° ESE 01:40:35 35° E 03:05:30 10° NE visible
27 Apr 8.2 04:56:16 10° SSW 07:03:15 75° NW 08:02:27 10° NE visible
27 Apr 8.9 23:51:11 10° E 00:32:49 22° E 01:49:19 10° NE visible
28 Apr 8.2 03:44:43 10° SSW 05:36:40 90° NW 06:50:20 10° NE visible
28 Apr 9.3 23:25:32 10° ENE 23:29:08 11° ENE 00:24:59 10° NE visible
29 Apr 8.2 02:36:27 10° S 04:14:38 74° ESE 05:38:01 10° NE visible
30 Apr 8.2 01:31:47 10° SSE 02:57:34 58° ESE 04:25:18 10° NE visible
01 May 8.4 00:32:26 10° SE 01:44:38 42° E 03:11:51 10° NE visible
01 May 8.2 05:02:30 10° SW 07:15:27 70° NNW 08:07:56 10° ENE visible
01 May 8.7 23:41:58 10° ESE 00:35:14 28° E 01:56:49 10° NE visible
02 May 8.2 03:49:14 10° SSW 05:47:23 83° NW 06:55:43 10° NE visible
02 May 9.1 23:06:00 10° E 23:29:32 15° ENE 00:37:35 10° NE visible
03 May 8.1 02:39:23 10° S 04:22:51 81° ESE 05:43:20 10° NE visible
04 May 8.2 01:32:50 10° SSE 03:03:31 65° ESE 04:30:39 10° NE visible
05 May 8.3 00:30:37 10° SE 01:48:47 49° E 03:17:25 10° NE visible
05 May 8.3 05:09:06 10° SW 07:27:04 65° NNW 08:12:54 10° ENE visible
05 May 8.5 23:35:26 10° ESE 00:37:48 34° E 02:03:03 10° NE visible
06 May 8.2 03:53:53 10° SSW 05:58:20 77° NW 07:00:36 10° NE visible
